Regional Weather Roundup
Issued by NWS Little Rock, AR

Home | Current Version | Previous Version | Graphics & Text | Print | Product List | Glossary On
Versions: 1 2 3 4 5 6 7 8 9 10 11 12 13 14 15 16 17 18 19 20 21 22 23 24 25 26 27 28 29 30 31
000
ASUS44 KLZK 132105
RWRLZK

WEATHER ROUNDUP FOR ARKANSAS
NATIONAL WEATHER SERVICE LITTLE ROCK AR
300 PM CST WED DEC 13 2017

NOTE: "FAIR" INDICATES FEW OR NO CLOUDS BELOW 12,000 FEET WITH NO
SIGNIFICANT WEATHER AND/OR OBSTRUCTIONS TO VISIBILITY.

ARZ001-003-010-029-132200-
NORTHWEST ARKANSAS

CITY           SKY/WX    TMP DP  RH WIND       PRES   REMARKS
FAYETTEVILLE   SUNNY     57  26  30 W10       29.83F
FORT SMITH     SUNNY     63  24  22 W15       29.84R
HARRISON       SUNNY     58  25  28 NW13G20   29.78R
BENTONVILLE    SUNNY     57  25  29 W10       29.84S
ROGERS         SUNNY     57  26  30 W10       29.83R
SILOAM SPGS    SUNNY     58  27  30 W10       29.84S
HIGHFILL       SUNNY     58  25  28 W10       29.83S
SPRINGDALE     SUNNY     59  25  27 W13       29.83F
$$

ARZ004-005-016-132200-
NORTH CENTRAL ARKANSAS

CITY           SKY/WX    TMP DP  RH WIND       PRES   REMARKS
BATESVILLE     CLOUDY    60  25  26 SW13G20   29.75F
FLIPPIN        SUNNY     62  26  25 W14       29.76S
MTN HOME       SUNNY     59  26  28 VRB6G17   29.75S
$$

ARZ040-041-132200-
WEST CENTRAL ARKANSAS

CITY           SKY/WX    TMP DP  RH WIND       PRES   REMARKS
MENA           NOT AVBL
MOUNT IDA      SUNNY     68  25  19 VRB6G20   29.81S
$$

ARZ009-017-025-026-028-132200-
NORTHEAST ARKANSAS

CITY           SKY/WX    TMP DP  RH WIND       PRES   REMARKS
JONESBORO      PTSUNNY   57  27  31 SW20      29.74F
NEWPORT        MOSUNNY   60  25  26 SW16      29.75S
WALNUT RIDGE   MOSUNNY   57  25  29 SW16      29.72S
BLYTHEVILLE    PTSUNNY   56  26  31 SW20G30   29.75R
$$

ARZ022-023-033-042-044-132200-
CENTRAL ARKANSAS

CITY           SKY/WX    TMP DP  RH WIND       PRES   REMARKS
LITTLE ROCK    MOSUNNY   63  24  22 SW14G23   29.80F
N LITTLE ROCK    N/A     64  27  25 W8G16     29.83F
JACKSONVILLE   SUNNY     65  25  22 SW15      29.79S
SEARCY         SUNNY     64  25  22 MISG        N/A
HOT SPRINGS    SUNNY     65  25  22 SW12G22   29.83F
RUSSELLVILLE   SUNNY     63  24  22 NW13      29.80S
CLINTON        FAIR      59  23  25 SW10G16   29.77F
$$

ARZ036-132200-
EAST ARKANSAS

CITY           SKY/WX    TMP DP  RH WIND       PRES   REMARKS
WEST MEMPHIS   SUNNY     58  26  29 SW15G25   29.77F
$$

ARZ050-053-066-070-073-132200-
SOUTHWEST ARKANSAS

CITY           SKY/WX    TMP DP  RH WIND       PRES   REMARKS
ARKADELPHIA    FAIR      68  27  21 SW13G23   29.85F
CAMDEN         SUNNY     68  19  15 SW9G16    29.87F
TEXARKANA      SUNNY     66  25  21 SW17      29.89F
EL DORADO      SUNNY     64  27  24 S14G26    29.91F
DE QUEEN       SUNNY     69  27  20 SW14      29.84F
$$

ARZ056-057-069-132200-
SOUTHEAST ARKANSAS

CITY           SKY/WX    TMP DP  RH WIND       PRES   REMARKS
PINE BLUFF     SUNNY     64  23  21 SW17G26   29.83F
STUTTGART      SUNNY     63  24  22 SW21      29.81F
MONTICELLO     SUNNY     64  22  20 SW17G24   29.88F

$$






USA.gov is the U.S. government's official web portal to all federal, state and local government web resources and services.